Regional Weather Roundup
Issued by NWS

Home | Current Version | Previous Version | Graphics & Text | Print | Product List | Glossary On
Versions: 1 2 3 4 5 6 7 8 9 10 11 12 13 14 15 16 17 18 19 20 21 22 23 24 25 26 27 28 29 30 31 32 33 34 35 36 37 38 39 40 41 42 43 44 45 46 47 48 49 50
000
ASUS45 KBOU 251807
RWRCO

WEATHER ROUNDUP FOR COLORADO
NATIONAL WEATHER SERVICE DENVER/BOULDER CO
1200 PM MDT SAT APR 25 2015

NOTE: "FAIR" INDICATES FEW OR NO CLOUDS BELOW 12000 FEET WITH NO
SIGNIFICANT WEATHER AND/OR OBSTRUCTIONS TO VISIBILITY.

COZ001>005-013-030-031-251900-
...NORTHWEST COLORADO...

CITY           SKY/WX    TMP DP  RH WIND       PRES   REMARKS
CRAIG          CLOUDY    42  36  79 E5        29.87F
HAYDEN         CLOUDY    36  32  87 CALM      29.89F
MEEKER         CLOUDY    38  35  89 E5        29.89F
MOUNT WERNER   NOT AVBL
STEAMBOAT SPGS CLOUDY    34  33  96 SW3       29.90R
WALDEN         CLOUDY    46  27  46 S14G23    29.83R
$$

COZ006>008-011-251900-
...WEST CENTRAL VALLEYS...

CITY           SKY/WX    TMP DP  RH WIND       PRES   REMARKS
GRAND JUNCTION PTSUNNY   49  43  80 E5        29.87F
MONTROSE       CLOUDY    50  41  71 N15       29.88S
EAGLE          CLOUDY    52  36  54 W22G29    29.84S
RIFLE          LGT RAIN  42  38  85 W8        29.90S
DELTA          CLOUDY    50  44  80 MISG      29.87F
NUCLA          LGT RAIN  45  37  76 NW13      29.94R
$$

COZ017>023-064>068-251900-
...SOUTHWEST COLORADO...

CITY           SKY/WX    TMP DP  RH WIND       PRES   REMARKS
DURANGO        CLOUDY    48  36  63 N3        29.93F
CORTEZ         CLOUDY    50  43  77 SW10      29.92S
PAGOSA SPRINGS CLOUDY    45  34  66 CALM      29.97F
TELLURIDE      PTSUNNY   44  28  53 CALM      29.95S
WOLF CREEK PAS NOT AVBL
$$

COZ009-010-012-014-032>034-037-058>063-251900-
...CENTRAL COLORADO...

CITY           SKY/WX    TMP DP  RH WIND       PRES   REMARKS
ASPEN          PTSUNNY   49  26  41 CALM      29.84F
BUENA VISTA    PTSUNNY   51  23  32 SE5       29.86F
COPPER MTN     CLOUDY    36  19  51 SW6       29.98F
BERTHOUD PASS  FAIR      30  21  69 NW15G25   29.99R WCI  19
COTTONWOOD PAS PTSUNNY   45  19  36 W5        29.93F
GUNNISON       MOSUNNY   50  28  43 SW7G17    29.91F
KREMMLING      CLOUDY    50  27  40 W10G25    29.85R
LEADVILLE      CLOUDY    38  20  48 S6        29.90F
MONARCH PASS   PTSUNNY   32  23  69 SW20G31   30.10S WCI  20
SALIDA         PTSUNNY   56  24  29 SW7G20    29.93F
SUNLIGHT       SNOW      32  30  93 SW3       29.98R VSB 1/4
WILKERSON PASS PTSUNNY   37  21  52 SW9G20    29.97F
$$

COZ069>075-251900-
...SAN LUIS VALLEY/SANGRE DE CRISTO MOUNTAINS...

CITY           SKY/WX    TMP DP  RH WIND       PRES   REMARKS
ALAMOSA        CLOUDY    52  23  32 SE13      29.88F
LA VETA PASS   MOSUNNY   45  28  53 SW7G24    29.95F
SAGUACHE       MOSUNNY   50  27  40 S6        29.91F
$$

COZ035-036-038>040-251900-
...NORTHERN COLORADO FRONT RANGE...

CITY           SKY/WX    TMP DP  RH WIND       PRES   REMARKS
DENVER INTL AP CLOUDY    65  26  23 S8        29.72F
DMNS CITY PARK   N/A     67  22  18 SW10      29.70F
AURORA         PTSUNNY   65  23  20 S6        29.73F
FRONT RANGE AP PTSUNNY   66  25  20 NE3       29.73F
ERIE MUNI ARPT MOSUNNY   66  28  23 E7        29.70F
BOULDER MUN AP MOSUNNY   64  32  29 NE6       29.71S
CENTENNIAL     PTSUNNY   64  24  21 SE10      29.72F
BROOMFIELD     PTSUNNY   64  27  24 E9        29.73F
FORT COLLINS   MOSUNNY   64  36  34 SE10      29.72F
LONGMONT       MOSUNNY   68  29  23 CALM      29.72F
$$

COZ041-046-047-076>085-087-088-251900-
...PIKES PEAK/PALMER DIVIDE AND SOUTHERN FOOTHILLS...

CITY           SKY/WX    TMP DP  RH WIND       PRES   REMARKS
COLO. SPRINGS  PTSUNNY   64  19  17 SE14      29.77F
A. F. ACADEMY  MOSUNNY   62  17  17 S12G17    29.77S
ELLICOTT       MOSUNNY  N/A N/A N/A S13G22    29.77F
FALCON         MOSUNNY   62  17  17 SE8G18    29.80F
FORT CARSON    PTSUNNY   65  25  21 SW14      29.73F
LIMON          MOSUNNY   64  27  24 S7G17     29.76S
MONUMENT HILL  PTSUNNY   61  21  21 S9G17     29.79S
TRINIDAD       SUNNY     67  22  18 NE6       29.77F
$$

COZ042>045-048>051-090-091-251900-
...NORTHEAST COLORADO...

CITY           SKY/WX    TMP DP  RH WIND       PRES   REMARKS
GREELEY ARPT   MOSUNNY   64  34  32 SE10      29.73F
AKRON          SUNNY     66  34  30 N9G17     29.73F
BURLINGTON     SUNNY     67  42  40 N13       29.73F
WRAY           SUNNY     66  44  45 N6        29.72F
STERLING       SUNNY     64  41  42 CALM      29.71F
HOLYOKE        SUNNY     64  45  48 NE7       29.72S
FORT MORGAN    SUNNY     67  30  25 NE7       29.73F
$$

COZ086-089-092>099-251900-
...SOUTHEAST COLORADO...

CITY           SKY/WX    TMP DP  RH WIND       PRES   REMARKS
PUEBLO         SUNNY     70  25  18 SW13      29.71F
LA JUNTA       SUNNY     72  26  18 MISG      29.72F
LAMAR          SUNNY     71  30  21 VRB5      29.70F
SPRINGFIELD      N/A     70  27  20 S8        29.74F
$$



USA.gov is the U.S. government's official web portal to all federal, state and local government web resources and services.